Regional Weather Roundup
Issued by NWS

Home | Current Version | Previous Version | Text Only | Print | Product List | Glossary Off
Versions: 1 2 3 4 5 6 7 8 9 10 11 12 13 14 15 16 17 18 19 20 21 22 23 24 25 26 27 28 29 30 31 32 33 34 35 36 37 38 39 40 41 42 43 44 45 46 47 48 49 50

000
ASUS43 KLSX 051457
RWRMO

WEATHER SUMMARY FOR MISSOURI
NATIONAL WEATHER SERVICE SPRINGFIELD MO
900 AM CST MON DEC 05 2016

NOTE: "FAIR" INDICATES FEW OR NO CLOUDS BELOW 12,000 FEET WITH NO
       SIGNIFICANT WEATHER AND/OR OBSTRUCTIONS TO VISIBILITY.
       CURRENT SKY AND/OR WEATHER CONDITIONS ARE NOT AVAILABLE FOR
       CHILLICOTHE AND FARMINGTON.

MOZ001>031-035>038-043-044-053-054-051600-
...NORTHERN AND WESTERN MISSOURI...

CITY           SKY/WX    TMP DP  RH WIND       PRES   REMARKS
KANSAS CTY INT MOSUNNY   38  34  85 S10       29.88F
LEE`S SUMMIT   FOG       35  34  96 S9        29.91F VSB 1/2 WCI  28
ST JOSEPH      SUNNY     35  34  96 S9        29.87F WCI  28
CHILLICOTHE      N/A     32  32 100 SE7       29.94S WCI  26

$$
MOZ066>068-077>081-088>096-101>105-051600-
...SOUTHWEST MISSOURI...

CITY           SKY/WX    TMP DP  RH WIND       PRES   REMARKS
SPRINGFIELD    FOG       35  34  96 S12       29.93F VSB 1/8 WCI  27
JOPLIN         SUNNY     37  36  96 SE5       29.93F
BRANSON        LGT RAIN  34  34 100 SE12      29.96F VSB 1/8 WCI  25

$$
MOZ032>034-039>042-045>050-055>058-069>072-051600-
...CENTRAL MISSOURI...

CITY           SKY/WX    TMP DP  RH WIND       PRES   REMARKS
COLUMBIA       NOT AVBL
JEFFERSON CITY MOSUNNY   30  30 100 SE5       30.01F FOG     WCI  25
ROLLA          CLOUDY    33  33 100 S8        29.98R FOG     WCI  26
SEDALIA        SUNNY     35  33  92 SE8       29.96F WCI  29
WARRENSBURG    SUNNY     32  32 100 SE7       29.95S WCI  26

$$
MOZ051-052-059>065-051600-
...EAST CENTRAL MISSOURI...

CITY           SKY/WX    TMP DP  RH WIND       PRES   REMARKS
ST LOUIS INTL  CLOUDY    40  34  79 SE8       30.05S
ST CHARLES     CLOUDY    39  36  87 SE5       30.05S

$$
MOZ072>076-082>087-097>100-106>115-051600-
...SOUTH CENTRAL AND SOUTHEAST MISSOURI...

CITY           SKY/WX    TMP DP  RH WIND       PRES   REMARKS
CAPE GIRARDEAU CLOUDY    38  34  85 NE7       30.06S
POPLAR BLUFF   CLOUDY    38  36  92 NE3       30.05R
WEST PLAINS    CLOUDY    37  35  92 E7        30.00S

$$



USA.gov is the U.S. government's official web portal to all federal, state and local government web resources and services.